Fort Indiantown Gap, PA

7:22 PM EDT on September 22, 2017 (GMT -0400)
Muir Army Air Field

Weather History for KMUI - December, 2013

Change the Weather History Date:

Tuesday, December 17, 2013

  Actual Average Record
Temperature  
Mean Temperature 20 °F -  
Max Temperature 26 °F 39 °F 51 °F (1997)
Min Temperature 14 °F 27 °F 14 °F (2013)
Degree Days  
Heating Degree Days 45    
Moisture  
Dew Point 20 °F    
Average Humidity 94    
Maximum Humidity 100    
Minimum Humidity 59    
Precipitation  
Precipitation 0.06 in - - ()
Sea Level Pressure  
Sea Level Pressure 30.08 in    
Wind  
Wind Speed 3 mph (ENE)    
Max Wind Speed 8 mph    
Max Gust Speed -    
Visibility 6 miles    
Events Rain , Snow    
Averages and records for this station are not official NWS values.
T = Trace of Precipitation, MM = Missing Value Source: NWS Daily Summary

Daily Weather History Graph

Daily Weather History Graph

Search for Another Location

Airport or City:

Trip Planner

Search our weather history database for the weather conditions in past years. The results will help you decide how hot, cold, wet, or windy it might be!

Date:

Astronomy

Dec. 17, 2013 Rise Set
Actual Time 7:23 AM EST 4:41 PM EST
Civil Twilight 6:52 AM EST 5:12 PM EST
Nautical Twilight 6:18 AM EST 5:46 PM EST
Astronomical Twilight 5:45 AM EST 6:19 PM EST
Moon 5:19 PM EST (12/17) 7:18 AM EST (12/17)
Length of Visible Light 10h 19m
Length of Day
9h 17m
Full, 100% of the Moon is Illuminated
Dec 17
Full
Dec 25
Last Quarter
Jan 1
New
Jan 7
First Quarter
Jan 15
Full

Hourly Weather History & Observations

Time (EST) Temp. Windchill Dew Point Humidity Pressure Visibility Wind Dir Wind Speed Gust Speed Precip Events Conditions
12:06 AM 21.2 °F - 12.2 °F 68% 30.18 in 10.0 mi East 2.3 mph - N/A   Overcast
12:12 AM 23.0 °F - 10.4 °F 59% 30.18 in 10.0 mi ENE 2.3 mph - N/A   Overcast
12:14 AM 23.0 °F - 10.4 °F 59% 30.18 in 10.0 mi NE 2.3 mph - N/A   Overcast
12:18 AM 23.0 °F - 12.2 °F 63% 30.18 in 10.0 mi ENE 2.3 mph - N/A   Overcast
12:22 AM 23.0 °F - 12.2 °F 63% 30.18 in 10.0 mi ENE 2.3 mph - N/A   Overcast
12:58 AM 22.6 °F - 10.9 °F 61% 30.20 in 10.0 mi NE 1.2 mph - N/A   Overcast
1:36 AM 23.0 °F 18.4 °F 12.2 °F 63% 30.15 in 10.0 mi ENE 3.5 mph - N/A   Overcast
1:58 AM 22.5 °F 17.8 °F 13.1 °F 67% 30.18 in 10.0 mi NE 3.5 mph - N/A   Overcast
2:11 AM 23.0 °F 18.4 °F 12.2 °F 63% 30.15 in 10.0 mi ENE 3.5 mph - N/A Snow Light Snow
2:20 AM 23.0 °F 17.0 °F 12.2 °F 63% 30.15 in 10.0 mi ENE 4.6 mph - N/A   Overcast
2:48 AM 23.0 °F 18.4 °F 12.2 °F 63% 30.15 in 10.0 mi East 3.5 mph - N/A Snow Light Snow
2:58 AM 22.5 °F 17.8 °F 12.2 °F 65% 30.18 in 7.0 mi ENE 3.5 mph - 0.00 in Snow Light Snow
3:14 AM 21.2 °F 14.9 °F 15.8 °F 80% 30.14 in 2.5 mi ENE 4.6 mph - N/A Snow Light Snow
3:30 AM 21.2 °F 16.4 °F 17.6 °F 86% 30.14 in 1.8 mi ENE 3.5 mph - N/A Snow Light Snow
3:36 AM 21.2 °F 16.4 °F 19.4 °F 93% 30.14 in 2.0 mi ENE 3.5 mph - N/A Snow Light Snow
3:52 AM 19.4 °F - 19.4 °F 100% 30.13 in 2.5 mi NE 2.3 mph - N/A Snow Light Snow
3:56 AM 19.4 °F - 19.4 °F 100% 30.13 in 3.0 mi NE 2.3 mph - N/A Snow Light Snow
3:58 AM 20.3 °F - 19.9 °F 99% 30.16 in 3.0 mi NE 2.3 mph - 0.01 in Snow Light Snow
4:02 AM 19.4 °F - 19.4 °F 100% 30.13 in 2.5 mi NE 2.3 mph - N/A Snow Light Snow
4:12 AM 19.4 °F - 19.4 °F 100% 30.13 in 1.8 mi ENE 2.3 mph - N/A Snow Light Snow
4:24 AM 19.4 °F - 19.4 °F 100% 30.13 in 1.8 mi NE 2.3 mph - N/A Snow Light Snow
4:26 AM 19.4 °F 14.3 °F 19.4 °F 100% 30.12 in 2.0 mi NE 3.5 mph - N/A Snow Light Snow
4:32 AM 19.4 °F - 19.4 °F 100% 30.12 in 2.0 mi NE 2.3 mph - N/A Snow Light Snow
4:40 AM 19.4 °F 14.3 °F 19.4 °F 100% 30.12 in 1.8 mi NE 3.5 mph - N/A Snow Light Snow
4:44 AM 19.4 °F 14.3 °F 19.4 °F 100% 30.12 in 1.5 mi NE 3.5 mph - N/A Snow Light Snow
4:52 AM 19.4 °F 14.3 °F 19.4 °F 100% 30.12 in 1.2 mi NE 3.5 mph - N/A Snow Light Snow
4:56 AM 19.4 °F 14.3 °F 19.4 °F 100% 30.12 in 1.5 mi NE 3.5 mph - N/A Snow Light Snow
4:58 AM 20.1 °F 15.2 °F 19.9 °F 99% 30.15 in 1.5 mi NE 3.5 mph - 0.02 in Snow Light Snow
5:00 AM 19.4 °F 14.3 °F 19.4 °F 100% 30.12 in 1.8 mi NE 3.5 mph - N/A Snow Light Snow
5:02 AM 19.4 °F 14.3 °F 19.4 °F 100% 30.12 in 2.0 mi NE 3.5 mph - N/A Snow Light Snow
5:08 AM 19.4 °F 14.3 °F 19.4 °F 100% 30.12 in 3.0 mi NE 3.5 mph - N/A Snow Light Snow
5:20 AM 19.4 °F 14.3 °F 19.4 °F 100% 30.12 in 5.0 mi NE 3.5 mph - N/A Snow Light Snow
5:24 AM 19.4 °F 14.3 °F 19.4 °F 100% 30.12 in 4.0 mi NE 3.5 mph - N/A Snow Light Snow
5:26 AM 21.2 °F 14.9 °F 19.4 °F 93% 30.12 in 4.0 mi NE 4.6 mph - N/A Snow Light Snow
5:32 AM 21.2 °F 14.9 °F 19.4 °F 93% 30.12 in 4.0 mi NE 4.6 mph - N/A Snow Light Snow
5:47 AM 21.2 °F 16.4 °F 21.2 °F 100% 30.12 in 3.0 mi ENE 3.5 mph - N/A Rain Light Freezing Rain
5:56 AM 21.2 °F 14.9 °F 19.4 °F 93% 30.11 in 4.0 mi ENE 4.6 mph - N/A Snow Light Snow
5:58 AM 21.2 °F 14.9 °F 19.4 °F 93% 30.14 in 3.0 mi ENE 4.6 mph - 0.01 in Snow Light Snow
6:06 AM 21.2 °F 13.6 °F 21.2 °F 100% 30.11 in 4.0 mi ENE 5.8 mph - N/A Rain Light Freezing Rain
6:14 AM 21.2 °F 16.4 °F 21.2 °F 100% 30.12 in 4.0 mi NE 3.5 mph - N/A Rain Light Freezing Rain
6:20 AM 21.2 °F 14.9 °F 21.2 °F 100% 30.11 in 4.0 mi NE 4.6 mph - N/A Rain Light Freezing Rain
6:28 AM 21.2 °F 14.9 °F 21.2 °F 100% 30.11 in 4.0 mi NE 4.6 mph - N/A Snow Light Snow
6:41 AM 21.2 °F 14.9 °F 21.2 °F 100% 30.11 in 4.0 mi NE 4.6 mph - N/A Rain Light Freezing Rain
6:54 AM 21.2 °F 16.4 °F 21.2 °F 100% 30.11 in 3.0 mi ENE 3.5 mph - N/A Rain Light Freezing Rain
6:58 AM 20.8 °F 14.4 °F 20.7 °F 99% 30.14 in 4.0 mi ENE 4.6 mph - 0.00 in Rain Light Freezing Rain
6:59 AM 21.2 °F 14.9 °F 21.2 °F 100% 30.11 in 4.0 mi ENE 4.6 mph - N/A Snow Light Snow
7:09 AM 21.2 °F 14.9 °F 21.2 °F 100% 30.11 in 5.0 mi ENE 4.6 mph - N/A Rain Light Freezing Rain
7:23 AM 21.2 °F 12.6 °F 21.2 °F 100% 30.10 in 5.0 mi ENE 6.9 mph - N/A Rain Light Freezing Rain
7:33 AM 21.2 °F 13.6 °F 21.2 °F 100% 30.10 in 5.0 mi ENE 5.8 mph - N/A Rain Light Freezing Rain
7:34 AM 21.2 °F 13.6 °F 21.2 °F 100% 30.10 in 5.0 mi ENE 5.8 mph - N/A Snow Light Snow
7:38 AM 21.2 °F 13.6 °F 21.2 °F 100% 30.10 in 5.0 mi ENE 5.8 mph - N/A Snow Light Snow
7:42 AM 21.2 °F 13.6 °F 21.2 °F 100% 30.09 in 3.0 mi ENE 5.8 mph - N/A Snow Light Snow
7:44 AM 21.2 °F 13.6 °F 21.2 °F 100% 30.09 in 2.5 mi ENE 5.8 mph - N/A Snow Light Snow
7:54 AM 21.2 °F 14.9 °F 21.2 °F 100% 30.10 in 3.0 mi ENE 4.6 mph - N/A Snow Light Snow
7:58 AM 21.0 °F 13.4 °F 20.8 °F 99% 30.14 in 4.0 mi ENE 5.8 mph - 0.00 in Snow Light Snow
8:00 AM 21.2 °F 14.9 °F 21.2 °F 100% 30.10 in 5.0 mi ENE 4.6 mph - N/A Snow Light Snow
8:03 AM 21.2 °F 12.6 °F 21.2 °F 100% 30.10 in 6.0 mi ENE 6.9 mph - N/A   Overcast
8:26 AM 21.2 °F 12.6 °F 21.2 °F 100% 30.10 in 7.0 mi ENE 6.9 mph - N/A Snow Light Snow
8:38 AM 21.2 °F 12.6 °F 21.2 °F 100% 30.09 in 7.0 mi ENE 6.9 mph - N/A   Overcast
8:50 AM 21.2 °F 12.6 °F 21.2 °F 100% 30.09 in 7.0 mi ENE 6.9 mph - N/A Snow Light Snow
8:52 AM 21.2 °F 13.6 °F 21.2 °F 100% 30.09 in 6.0 mi ENE 5.8 mph - N/A Snow Light Snow
8:54 AM 21.2 °F 13.6 °F 21.2 °F 100% 30.09 in 5.0 mi NE 5.8 mph - N/A Snow Light Snow
8:58 AM 21.2 °F 14.9 °F 21.0 °F 99% 30.12 in 4.0 mi ENE 4.6 mph - 0.00 in Snow Light Snow
9:02 AM 21.2 °F 13.6 °F 21.2 °F 100% 30.08 in 2.5 mi ENE 5.8 mph - N/A Snow Light Snow
9:08 AM 21.2 °F 14.9 °F 21.2 °F 100% 30.08 in 2.5 mi ENE 4.6 mph - N/A Snow Light Snow
9:12 AM 21.2 °F 13.6 °F 21.2 °F 100% 30.08 in 1.8 mi ENE 5.8 mph - N/A Snow Light Snow
9:14 AM 21.2 °F 14.9 °F 21.2 °F 100% 30.08 in 1.2 mi ENE 4.6 mph - N/A Snow Light Snow
9:16 AM 21.2 °F 11.7 °F 21.2 °F 100% 30.08 in 1.0 mi ENE 8.1 mph - N/A Snow Light Snow
9:24 AM 21.2 °F 14.9 °F 21.2 °F 100% 30.07 in 1.2 mi ENE 4.6 mph - N/A Snow Light Snow
9:26 AM 21.2 °F 14.9 °F 21.2 °F 100% 30.07 in 1.5 mi NE 4.6 mph - N/A Snow Light Snow
9:28 AM 21.2 °F 14.9 °F 21.2 °F 100% 30.07 in 1.8 mi ENE 4.6 mph - N/A Snow Light Snow
9:32 AM 21.2 °F 14.9 °F 21.2 °F 100% 30.07 in 1.5 mi ENE 4.6 mph - N/A Snow Light Snow
9:34 AM 21.2 °F 13.6 °F 21.2 °F 100% 30.07 in 1.2 mi ENE 5.8 mph - N/A Snow Light Snow
9:40 AM 21.2 °F 13.6 °F 21.2 °F 100% 30.07 in 1.5 mi ENE 5.8 mph - N/A Snow Light Snow
9:42 AM 21.2 °F 13.6 °F 21.2 °F 100% 30.07 in 2.0 mi ENE 5.8 mph - N/A Snow Light Snow
9:46 AM 21.2 °F 12.6 °F 21.2 °F 100% 30.07 in 3.0 mi ENE 6.9 mph - N/A Snow Light Snow
9:54 AM 21.2 °F 14.9 °F 21.2 °F 100% 30.07 in 5.0 mi ENE 4.6 mph - N/A   Overcast
9:55 AM 21.2 °F 13.6 °F 21.2 °F 100% 30.07 in 5.0 mi ENE 5.8 mph - N/A   Overcast
9:58 AM 21.9 °F 13.4 °F 21.7 °F 99% 30.10 in 6.0 mi ENE 6.9 mph - 0.01 in   Overcast
10:58 AM 22.6 °F 16.5 °F 22.5 °F 99% 30.07 in 10.0 mi ENE 4.6 mph - N/A   Overcast
11:04 AM 23.0 °F 17.0 °F 23.0 °F 100% 30.04 in 10.0 mi ENE 4.6 mph - N/A   Overcast
11:13 AM 23.0 °F 17.0 °F 23.0 °F 100% 30.03 in 9.0 mi ENE 4.6 mph - N/A Rain Light Freezing Rain
11:14 AM 23.0 °F 17.0 °F 23.0 °F 100% 30.03 in 9.0 mi ENE 4.6 mph - N/A   Overcast
11:26 AM 23.0 °F - 23.0 °F 100% 30.03 in 10.0 mi NE 2.3 mph - N/A   Overcast
11:28 AM 23.0 °F - 23.0 °F 100% 30.03 in 10.0 mi ENE 2.3 mph - N/A   Overcast
11:57 AM 23.0 °F - 23.0 °F 100% 30.01 in 9.0 mi NE 2.3 mph - N/A   Overcast
11:58 AM 23.0 °F - 23.0 °F 100% 30.04 in 9.0 mi NE 2.3 mph - 0.01 in   Overcast
12:42 PM 23.0 °F - 23.0 °F 100% 29.99 in 10.0 mi North 2.3 mph - N/A   Overcast
12:58 PM 23.9 °F 19.5 °F 23.2 °F 97% 30.02 in 10.0 mi North 3.5 mph - 0.00 in   Overcast
1:01 PM 24.8 °F - 23.0 °F 93% 29.98 in 10.0 mi North 2.3 mph - N/A   Overcast
1:15 PM 24.8 °F - 23.0 °F 93% 29.98 in 10.0 mi North 1.2 mph - N/A   Overcast
1:58 PM 25.5 °F - 23.0 °F 90% 29.99 in 10.0 mi Calm Calm - 0.00 in   Overcast
2:18 PM 24.8 °F - 23.0 °F 93% 29.96 in 10.0 mi ESE 1.2 mph - N/A   Overcast
2:26 PM 26.6 °F - 23.0 °F 86% 29.96 in 10.0 mi Calm Calm - N/A   Overcast
2:58 PM 26.1 °F - 23.7 °F 91% 29.98 in 10.0 mi Calm Calm - N/A   Overcast
3:14 PM 26.6 °F - 23.0 °F 86% 29.95 in 10.0 mi East 2.3 mph - N/A   Overcast
3:24 PM 26.6 °F - 24.8 °F 93% 29.97 in 10.0 mi SE 1.2 mph - N/A   Overcast
3:58 PM 26.4 °F - 24.1 °F 91% 30.00 in 10.0 mi SSE 1.2 mph - N/A   Overcast
4:58 PM 26.6 °F - 24.8 °F 93% 30.00 in 10.0 mi SSW 2.3 mph - N/A   Overcast
5:02 PM 26.6 °F 22.6 °F 24.8 °F 93% 29.97 in 4.0 mi Variable 3.5 mph - N/A   Overcast
5:06 PM 26.6 °F - 26.6 °F 100% 29.97 in 2.5 mi Calm Calm - N/A   Overcast
5:10 PM 26.6 °F - 24.8 °F 93% 29.97 in 3.0 mi NNE 1.2 mph - N/A   Overcast
5:14 PM 26.6 °F - 24.8 °F 93% 29.97 in 8.0 mi NNE 2.3 mph - N/A   Overcast
5:58 PM 25.7 °F - 24.6 °F 96% 30.00 in 10.0 mi Calm Calm - 0.00 in   Overcast
6:07 PM 24.8 °F - 24.8 °F 100% 29.97 in 5.0 mi Calm Calm - N/A   Overcast
6:17 PM 24.8 °F - 24.8 °F 100% 29.97 in 8.0 mi Variable 2.3 mph - N/A   Mostly Cloudy
6:58 PM 23.7 °F - 23.4 °F 99% 30.01 in 10.0 mi Calm Calm - 0.00 in   Clear
7:58 PM 19.8 °F - 19.6 °F 99% 30.00 in 8.0 mi Calm Calm - N/A   Clear
8:58 PM 19.2 °F - 19.0 °F 99% 30.00 in 7.0 mi WSW 1.2 mph - N/A   Clear
9:58 PM 14.5 °F - 14.4 °F 99% 29.99 in 6.0 mi NE 2.3 mph - N/A   Clear
10:58 PM 18.1 °F - 17.8 °F 98% 30.00 in 5.0 mi West 1.2 mph - N/A   Clear
11:58 PM 15.8 °F - 15.6 °F 99% 30.01 in 9.0 mi SSE 1.2 mph - N/A   Mostly Cloudy